#timestamp,LO_Frequency,Hit,StdDev 
1629450015.7,286046992.5,N
1629450035.5,286046992.3,N
1629450055.3,286046992.8,N
1629450075.2,286046992.5,N
1629450095.0,286046988.7,N
1629450095.9,286046988.7,N
1629450115.7,286046989.6,N
1629450135.6,286046991.1,N
1629450155.4,286046991.6,N
1629450175.3,286046988.1,Y
1629450195.1,286046991.3,P
1629450215.8,286046988.9,P
1629450235.7,286046989.5,P
1629450255.5,286046987.5,Y
1629450275.4,286046995.3,P
1629450295.2,286046995.6,N
1629450315.0,286046994.7,N
1629450315.9,286046994.7,N
1629450335.8,286046994.8,N
1629450355.6,286046992.0,Y
1629450375.5,286046999.1,P
1629450395.3,286046998.2,N
1629450415.1,286047000.1,N
1629450435.9,286046998.6,N
1629450455.7,286047000.7,N
1629450475.5,286047002.0,N
1629450495.4,286047001.2,N
1629450515.2,286046995.0,N
1629450535.1,286046993.7,N
1629450536.0,286046993.7,N
1629450555.8,286046994.6,N
1629450575.6,286046992.4,N
1629450595.5,286046992.2,N
1629450615.3,286046990.5,N
1629450635.1,286046989.6,N
1629450655.9,286046986.9,Y
1629450675.7,286046992.1,P
1629450695.6,286046993.8,P
1629450715.4,286046994.9,P
1629450735.2,286046995.1,Y
1629450755.1,286047002.0,P
1629450756.0,286047002.0,N
1629450775.8,286047004.2,N
1629450795.6,286047004.3,N
1629450815.5,286047002.8,N
1629450835.3,286047000.3,N
1629450855.2,286046997.0,N
1629450875.9,286046996.7,N
1629450895.7,286046997.4,N
1629450915.6,286046995.3,N
1629450935.4,286046995.4,N
1629450955.2,286046995.7,N
1629450975.1,286046995.9,N
1629450976.0,286046995.9,N
1629450995.8,286046994.2,N
1629451015.7,286046991.9,N
1629451035.5,286046990.7,N
1629451055.3,286046992.8,N
1629451075.2,286046992.8,N
1629451095.9,286046993.9,N
1629451115.7,286046995.9,N
1629451135.6,286046992.4,N
1629451155.4,286046990.3,N
1629451175.3,286046991.3,N
1629451195.1,286046990.0,N
1629451196.0,286046990.0,N
1629451215.8,286046986.1,Y
1629451235.7,286046994.3,P
1629451255.5,286046994.2,P
1629451275.3,286046993.2,P
1629451295.2,286046989.3,Y
1629451315.0,286046992.6,P
1629451315.9,286046992.6,P
1629451335.8,286046990.9,P
1629451355.6,286046990.5,Y
1629451375.4,286046999.6,P
1629451395.3,286046997.0,N
1629451415.1,286046996.2,N
1629451435.9,286046996.0,N
1629451455.7,286046993.1,Y
1629451475.5,286046995.0,P
1629451495.4,286046997.1,P
1629451515.2,286046997.6,N
1629451535.0,286046994.3,Y
1629451535.9,286046994.3,P
1629451555.8,286046995.6,P
1629451575.6,286046998.6,N
1629451595.5,286047000.5,N
1629451615.3,286046996.1,N
1629451635.1,286046993.1,Y
1629451655.9,286046993.5,P
1629451675.7,286046994.6,P
1629451695.6,286046992.3,P
1629451715.4,286046994.3,Y
1629451735.2,286047004.4,P
1629451755.1,286047002.2,N
1629451756.0,286047002.2,N
1629451775.8,286047001.1,N
1629451795.6,286046996.4,N
1629451815.5,286046992.9,N
1629451835.3,286046988.5,N
1629451855.2,286046992.1,N
1629451875.9,286046990.5,N
1629451895.7,286046988.6,N
1629451915.6,286046990.9,N
1629451935.4,286046994.1,N
1629451955.2,286046987.0,N
1629451975.1,286046985.4,N
1629451976.0,286046985.4,N
1629451995.8,286046984.3,N
1629452015.7,286046979.7,Y
1629452035.5,286046988.3,P
1629452055.3,286046987.6,P
1629452075.2,286046989.3,P
1629452095.0,286046992.2,Y
1629452095.9,286046992.2,P
1629452115.8,286047004.2,P
1629452135.6,286047000.0,N
1629452155.5,286046998.8,N
1629452175.3,286046998.1,N
1629452195.1,286047000.6,N
1629452215.9,286046998.3,N
1629452235.7,286047001.1,N
1629452255.5,286046996.7,N
1629452275.4,286046996.2,N
1629452295.2,286046993.8,N
1629452315.1,286046995.9,N
1629452316.0,286046995.9,N
1629452335.8,286046995.6,N
1629452355.6,286046996.1,N
1629452375.5,286046990.6,N
1629452395.3,286046991.5,N
1629452415.1,286046991.1,N
1629452435.9,286046990.4,N
1629452455.7,286046987.3,Y
1629452475.6,286046994.8,P
1629452495.4,286046992.9,P
1629452515.2,286046993.1,P
1629452535.1,286046994.8,Y
1629452536.0,286046994.8,P
1629452555.8,286047002.8,P
1629452575.7,286046998.6,N
1629452595.5,286046996.6,N
1629452615.3,286046996.7,N
1629452635.2,286046993.6,N
1629452655.9,286046999.2,N
1629452675.7,286046997.5,N
1629452695.6,286046997.4,N
1629452715.4,286046995.3,N
1629452735.2,286046995.3,N
1629452755.1,286046995.9,N
1629452756.0,286046995.9,N
1629452775.8,286046995.0,N
1629452795.7,286046996.2,N
1629452815.5,286046992.7,Y
1629452835.3,286046998.6,P
1629452855.2,286046999.3,N
1629452875.0,286046999.1,N
1629452875.9,286046999.1,N
1629452895.8,286046995.2,Y
1629452915.6,286046996.3,P
1629452935.4,286046996.5,P
1629452955.3,286046998.6,N
1629452975.1,286046998.6,N
1629452995.9,286047001.8,N
1629453015.7,286047001.8,N
1629453035.6,286047000.7,N
1629453055.4,286046999.2,N
1629453075.2,286047000.5,N
1629453095.1,286046998.7,N
1629453096.0,286046998.7,N
1629453115.8,286047000.9,N
1629453135.7,286047000.8,N
1629453155.5,286046995.2,N
1629453175.3,286046995.7,N
1629453195.2,286046999.5,N
1629453215.0,286046995.2,N
1629453215.9,286046995.2,N
1629453235.8,286046993.4,Y
1629453255.6,286046994.2,P
1629453275.4,286046995.2,N
1629453295.3,286046995.5,N
1629453315.1,286046998.0,N
1629453335.8,286046996.7,N
1629453355.7,286046996.6,N
1629453375.5,286046995.2,Y
1629453395.8,286047002.0,P
1629453415.7,286047001.7,N
1629453435.5,286047001.3,N
1629453455.4,286047002.5,N
1629453475.2,286046996.7,N
1629453495.0,286046999.1,N
1629453495.9,286046999.1,N
1629453515.8,286046996.7,N
1629453535.6,286046997.6,N
1629453555.5,286046995.2,N
1629453575.3,286046997.5,N
1629453595.1,286046997.0,N
